This is the latest recevied weather packets stored in our database for station/object KY0TEQ-13. If no packets are shown the sender has not sent any weather packets the latest 10 day(s).
| Time | Temp. | Humidity | Pressure | Rain* | Wind** | Luminosity | Snow |
|---|---|---|---|---|---|---|---|
| 1788392055 | 24.44° C | 32% | 1307.1 hPa | 0 mm | - | 90 W/m² | - |
| 1788391755 | 23.89° C | 33% | 1307.1 hPa | 0 mm | - | 60 W/m² | - |
| 1788391450 | 23.89° C | 32% | 1307.1 hPa | 0 mm | - | 53 W/m² | - |
| 1788391149 | 23.89° C | 32% | 1307.1 hPa | 0 mm | - | 55 W/m² | - |
| 1788390843 | 24.44° C | 32% | 1307.2 hPa | 0 mm | - | 61 W/m² | - |
| 1788390533 | 25° C | 31% | 1307.1 hPa | 0 mm | - | 79 W/m² | - |
| 1788390232 | 25° C | 30% | 1307.3 hPa | 0 mm | - | 357 W/m² | - |
| 1788389931 | 23.89° C | 32% | 1307.2 hPa | 0 mm | - | 87 W/m² | - |
| 1788389627 | 23.89° C | 33% | 1307.3 hPa | 0 mm | - | 68 W/m² | - |
| 1788389325 | 23.89° C | 32% | 1307.3 hPa | 0 mm | - | 109 W/m² | - |
| 1788389020 | 26.11° C | 30% | 1307.6 hPa | 0 mm | - | 97 W/m² | - |
| 1788388718 | 26.11° C | 29% | 1307.3 hPa | 0 mm | - | 399 W/m² | - |
| 1788388417 | 25.56° C | 30% | 1307.4 hPa | 0 mm | - | 273 W/m² | - |
| 1788388117 | 25.56° C | 30% | 1307.7 hPa | 0 mm | - | 491 W/m² | - |
| 1788387815 | 24.44° C | 31% | 1307.7 hPa | 0 mm | - | 562 W/m² | - |
| 1788387510 | 25° C | 31% | 1307.8 hPa | 0 mm | - | 289 W/m² | - |
| 1788387209 | 24.44° C | 30% | 1307.8 hPa | 0 mm | - | 165 W/m² | - |
| 1788386906 | 24.44° C | 30% | 1307.7 hPa | 0 mm | - | 179 W/m² | - |
| 1788386605 | 25° C | 29% | 1307.9 hPa | 0 mm | - | 229 W/m² | - |
| 1788386301 | 24.44° C | 29% | 1307.7 hPa | 0 mm | - | 187 W/m² | - |
| 1788386001 | 23.89° C | 30% | 1307.8 hPa | 0 mm | - | 153 W/m² | - |
| 1788385696 | 24.44° C | 29% | 1307.7 hPa | 0 mm | - | 160 W/m² | - |
| 1788385395 | 24.44° C | 29% | 1307.9 hPa | 0 mm | - | 183 W/m² | - |
| 1788385091 | 24.44° C | 29% | 1308 hPa | 0 mm | - | 185 W/m² | - |
| 1788384787 | 24.44° C | 28% | 1307.9 hPa | 0 mm | - | 162 W/m² | - |
* Rain latest hour (hover to see other rain measurements)
** Current wind speed in m/s (hover to see current wind gust speed)